Location: Unspecified
(0.0000°N, 0.0000°E)
Time: 19:58:29
(UTC+02:00)

Envisat - Pass Details

Date: 12 December 2017
Orbit: 764 x 766 km, 98.2° (Epoch: 24 April)

Event Time Altitude Azimuth Distance (km) Brightness Sun altitude
Rises 21:52:17 0° 192° (SSW) 3,232 6.7 -40.2°
Reaches altitude 10° 21:55:01 10° 206° (SSW) 2,303 6.0 -40.8°
Enters shadow 21:56:24 16° 219° (SW) 1,920 5.6 -41.1°
